GW5814 Weather Reports


time (UTC)temp
C
wind
direction
speed
KPH
gust
KPH
rain 1hr
cm
rain 24hr
cm
rain mn
cm
humidity
%
barometer
mb
20260506081524 15 202 0.0 6.4 0.00 0.00 0.00 80 1009.2
20260506081016 15 200 1.6 6.4 0.00 0.00 0.00 80 1009.2
20260506080511 15 206 0.0 3.2 0.00 0.00 0.00 79 1009.2
20260506073507 16 170 1.6 4.8 0.00 0.00 0.00 75 1009.2
20260506073018 16 227 1.6 8.0 0.00 0.00 0.00 74 1009.2
20260506072513 17 196 3.2 9.7 0.00 0.00 0.00 73 1009.2
20260506072012 17 191 1.6 9.7 0.00 0.00 0.00 72 1009.3
20260506071523 17 232 1.6 8.0 0.00 0.00 0.00 72 1009.3
20260506071010 17 191 1.6 8.0 0.00 0.00 0.00 71 1009.4
20260506070509 17 213 3.2 8.0 0.00 0.00 0.00 71 1009.4
20260506062514 18 219 1.6 3.2 0.00 0.00 0.00 67 1009.2
20260506062010 18 209 1.6 3.2 0.00 0.00 0.00 67 1009.2
20260506061520 18 202 1.6 3.2 0.00 0.00 0.00 66 1009.2
20260506061011 18 213 0.0 3.2 0.00 0.00 0.00 66 1009.2
20260506060508 18 196 0.0 3.2 0.00 0.00 0.00 65 1009.1
20260506051012 20 205 0.0 14.5 0.00 0.00 0.00 61 1009.7
20260506050514 20 197 1.6 14.5 0.00 0.00 0.00 61 1009.7
20260506045009 20 144 1.6 4.8 0.00 0.00 0.00 61 1009.7
20260506044510 20 218 1.6 4.8 0.00 0.00 0.00 61 1009.7
20260506044006 20 211 0.0 8.0 0.00 0.00 0.00 61 1009.7
20260506043505 20 223 0.0 8.0 0.00 0.00 0.00 60 1009.7
20260506043010 20 204 0.0 8.0 0.00 0.00 0.00 60 1009.7
20260506042507 20 214 1.6 8.0 0.00 0.00 0.00 60 1009.7
20260506042010 20 198 1.6 6.4 0.00 0.00 0.00 60 1009.6
20260506041526 20 189 1.6 6.4 0.00 0.00 0.00 60 1009.6
20260506041009 20 203 1.6 6.4 0.00 0.00 0.00 60 1009.6
20260506040517 20 229 1.6 11.3 0.00 0.00 0.00 60 1009.5
20260506040020 20 210 1.6 11.3 0.00 0.00 0.00 59 1009.5
20260506035508 20 202 1.6 8.0 0.00 0.00 0.00 59 1009.5
20260506035008 20 196 1.6 8.0 0.00 0.00 0.00 59 1009.5
20260506034526 20 210 1.6 8.0 0.00 0.00 0.00 59 1009.5
20260506034009 20 192 1.6 8.0 0.00 0.00 0.00 59 1009.5
20260506033506 20 218 3.2 9.7 0.00 0.00 0.00 59 1009.5
20260506033010 20 202 1.6 12.9 0.00 0.00 0.00 59 1009.5
20260506032508 20 157 1.6 12.9 0.00 0.00 0.00 59 1009.5
20260506032008 20 267 3.2 11.3 0.00 0.00 0.00 59 1009.4
20260506031516 20 198 1.6 8.0 0.00 0.00 0.00 59 1009.4
20260506031005 20 203 1.6 8.0 0.00 0.00 0.00 59 1009.3
20260506030508 20 232 1.6 6.4 0.00 0.00 0.00 59 1009.3
20260506030023 20 219 1.6 6.4 0.00 0.00 0.00 59 1009.3
20260506025514 20 200 1.6 8.0 0.00 0.00 0.00 60 1009.3
20260506025009 20 197 1.6 8.0 0.00 0.00 0.00 60 1009.4
20260506024522 20 185 0.0 6.4 0.00 0.00 0.00 60 1009.4
20260506024013 19 187 1.6 14.5 0.00 0.00 0.00 61 1009.3
20260506023513 19 180 3.2 14.5 0.00 0.00 0.00 62 1009.4
20260506023025 18 240 1.6 9.7 0.00 0.00 0.00 63 1009.4
20260506022511 18 194 0.0 3.2 0.00 0.00 0.00 63 1009.4
20260506022004 18 200 1.6 6.4 0.00 0.00 0.00 63 1009.4
20260506021513 18 216 1.6 9.7 0.00 0.00 0.00 63 1009.4
20260506021008 18 267 1.6 9.7 0.00 0.00 0.00 63 1009.3
20260506020513 18 187 1.6 8.0 0.00 0.00 0.00 63 1009.4
20260506020018 18 148 3.2 12.9 0.00 0.00 0.00 63 1009.3
20260506015507 18 182 1.6 12.9 0.00 0.00 0.00 63 1009.3
20260506015007 18 137 1.6 11.3 0.00 0.00 0.00 63 1009.3
20260506014529 18 154 3.2 9.7 0.00 0.00 0.00 63 1009.2
20260506014007 18 171 3.2 11.3 0.00 0.00 0.00 63 1009.0
20260506013509 18 189 3.2 12.9 0.00 0.00 0.00 63 1008.9
20260506013028 18 200 3.2 12.9 0.00 0.00 0.00 63 1008.9
20260506012509 19 188 1.6 9.7 0.00 0.00 0.00 62 1008.8
20260506012011 19 250 1.6 14.5 0.00 0.00 0.00 61 1008.9
20260506011526 20 166 1.6 14.5 0.00 0.00 0.00 60 1008.9
20260506011006 20 194 1.6 11.3 0.00 0.00 0.00 58 1008.8
20260506010508 20 171 3.2 19.3 0.00 0.00 0.00 56 1008.7
20260506010023 21 215 4.8 19.3 0.00 0.00 0.00 55 1008.7
20260506005509 21 182 1.6 17.7 0.00 0.00 0.00 54 1008.6
20260506005015 21 182 3.2 17.7 0.00 0.00 0.00 53 1008.5
20260506004534 21 207 1.6 8.0 0.00 0.00 0.00 53 1008.4
20260506004009 22 159 1.6 8.0 0.00 0.00 0.00 51 1008.3
20260506003510 22 174 1.6 6.4 0.00 0.00 0.00 49 1008.2
20260506003024 23 173 1.6 11.3 0.00 0.00 0.00 47 1008.1
20260506002512 23 209 3.2 11.3 0.00 0.00 0.00 44 1008.2
20260506002013 25 206 3.2 11.3 0.00 0.00 0.00 41 1008.2
20260506001528 25 205 4.8 19.3 0.00 0.00 0.00 33 1008.0
20260506001010 25 233 3.2 19.3 0.00 0.00 0.00 32 1007.7
20260506000507 25 192 3.2 16.1 0.00 0.00 0.00 32 1007.8
20260506000035 26 302 4.8 19.3 0.00 0.00 0.00 32 1007.8
20260505235514 26 200 3.2 19.3 0.00 0.00 0.00 31 1007.8
20260505235007 26 191 6.4 17.7 0.00 0.00 0.00 31 1007.6
20260505234520 26 277 8.0 17.7 0.00 0.00 0.00 31 1007.5
20260505234009 26 260 3.2 9.7 0.00 0.00 0.00 31 1007.6
20260505233513 26 192 3.2 17.7 0.00 0.00 0.00 30 1007.6
20260505233022 26 200 8.0 22.5 0.00 0.00 0.00 30 1007.4
20260505232512 26 202 4.8 22.5 0.00 0.00 0.00 30 1007.3
20260505232010 26 197 4.8 16.1 0.00 0.00 0.00 30 1007.3
20260505231527 26 189 4.8 24.1 0.00 0.00 0.00 29 1007.3
20260505231010 26 199 9.7 30.6 0.00 0.00 0.00 29 1007.3
20260505230513 26 198 3.2 30.6 0.00 0.00 0.00 29 1007.1
20260505230033 27 104 6.4 24.1 0.00 0.00 0.00 29 1007.1
20260505225513 27 200 8.0 24.1 0.00 0.00 0.00 29 1007.0
20260505225007 27 234 11.3 27.4 0.00 0.00 0.00 28 1006.9
20260505224522 27 159 8.0 30.6 0.00 0.00 0.00 28 1006.9
20260505224012 27 248 9.7 30.6 0.00 0.00 0.00 28 1006.9
20260505223512 27 224 9.7 30.6 0.00 0.00 0.00 28 1006.9
20260505223028 27 202 12.9 32.2 0.00 0.00 0.00 28 1006.9
20260505222507 27 250 8.0 33.8 0.00 0.00 0.00 29 1006.6
20260505222009 27 232 6.4 32.2 0.00 0.00 0.00 29 1006.7
20260505221522 27 275 8.0 25.7 0.00 0.00 0.00 29 1006.5
20260505221012 27 153 6.4 25.7 0.00 0.00 0.00 29 1006.6
20260505220510 27 292 11.3 22.5 0.00 0.00 0.00 29 1006.6
20260505220036 27 171 12.9 32.2 0.00 0.00 0.00 28 1006.9
20260505215512 27 205 9.7 32.2 0.00 0.00 0.00 28 1006.8
20260505215009 27 313 6.4 32.2 0.00 0.00 0.00 29 1006.6
20260505214547 28 228 6.4 24.1 0.00 0.00 0.00 28 1006.6
20260505214007 28 159 6.4 24.1 0.00 0.00 0.00 28 1006.4
20260505213507 28 297 8.0 19.3 0.00 0.00 0.00 28 1006.3
20260505213030 28 166 6.4 27.4 0.00 0.00 0.00 28 1006.3
20260505212510 28 196 11.3 29.0 0.00 0.00 0.00 28 1006.2
20260505212003 28 242 12.9 29.0 0.00 0.00 0.00 28 1006.2
20260505211505 28 194 6.4 27.4 0.00 0.00 0.00 28 1006.2
20260505211009 28 194 6.4 27.4 0.00 0.00 0.00 28 1006.2
20260505210504 28 248 4.8 17.7 0.00 0.00 0.00 28 1006.3
20260505210007 28 211 4.8 22.5 0.00 0.00 0.00 28 1006.2
20260505205509 28 159 9.7 27.4 0.00 0.00 0.00 27 1006.2
20260505205009 28 243 11.3 25.7 0.00 0.00 0.00 28 1006.1
20260505204516 28 272 6.4 29.0 0.00 0.00 0.00 28 1006.2
20260505204007 28 238 8.0 30.6 0.00 0.00 0.00 28 1006.2
20260505203511 28 211 9.7 30.6 0.00 0.00 0.00 28 1006.1
20260505203015 27 236 11.3 25.7 0.00 0.00 0.00 32 1006.5
20260505202506 26 197 4.8 25.7 0.00 0.00 0.00 33 1006.5
20260505202008 26 162 4.8 11.3 0.00 0.00 0.00 40 1006.6
20260505201527 25 168 1.6 14.5 0.00 0.00 0.00 46 1006.6
20260505201004 25 303 1.6 14.5 0.00 0.00 0.00 48 1006.7
20260505200506 25 146 4.8 17.7 0.00 0.00 0.00 48 1006.7
20260505200008 25 225 4.8 17.7 0.00 0.00 0.00 47 1006.8
20260505195505 25 164 6.4 16.1 0.00 0.00 0.00 46 1006.8
20260505195004 25 150 3.2 12.9 0.00 0.00 0.00 48 1006.8
20260505194510 25 258 4.8 17.7 0.00 0.00 0.00 47 1006.9
20260505194010 25 232 4.8 17.7 0.00 0.00 0.00 48 1007.0
20260505193507 25 147 4.8 19.3 0.00 0.00 0.00 47 1007.0
20260505193034 25 203 8.0 20.9 0.00 0.00 0.00 46 1007.1
20260505192508 25 168 6.4 17.7 0.00 0.00 0.00 46 1007.2
20260505192006 26 232 6.4 22.5 0.00 0.00 0.00 44 1007.2
20260505191522 26 189 3.2 22.5 0.00 0.00 0.00 44 1007.3
20260505191009 26 180 4.8 24.1 0.00 0.00 0.00 44 1007.3
20260505190507 26 123 9.7 24.1 0.00 0.00 0.00 40 1007.2
20260505190008 26 177 8.0 16.1 0.00 0.00 0.00 42 1007.2
20260505185510 25 171 6.4 16.1 0.00 0.00 0.00 45 1007.5
20260505185005 25 212 6.4 16.1 0.00 0.00 0.00 46 1007.9
20260505184507 25 105 3.2 16.1 0.00 0.00 0.00 46 1007.8
20260505184007 25 211 4.8 17.7 0.00 0.00 0.00 46 1007.9
20260505183507 25 195 6.4 20.9 0.00 0.00 0.00 45 1007.9
20260505183017 26 142 4.8 20.9 0.00 0.00 0.00 44 1007.9
20260505182506 25 158 3.2 12.9 0.00 0.00 0.00 44 1007.9
20260505182012 26 212 6.4 12.9 0.00 0.00 0.00 44 1008.0
20260505181521 25 217 4.8 12.9 0.00 0.00 0.00 44 1008.0
20260505181011 25 130 4.8 12.9 0.00 0.00 0.00 44 1008.0
20260505180507 25 147 3.2 12.9 0.00 0.00 0.00 45 1008.0
20260505180032 25 210 4.8 11.3 0.00 0.00 0.00 44 1008.0
20260505175510 26 184 4.8 17.7 0.00 0.00 0.00 44 1008.0
20260505175009 26 169 4.8 17.7 0.00 0.00 0.00 43 1008.0
20260505174506 26 210 4.8 11.3 0.00 0.00 0.00 43 1008.0
20260505174007 26 172 4.8 11.3 0.00 0.00 0.00 44 1008.1
20260505173504 25 246 3.2 17.7 0.00 0.00 0.00 45 1008.2
20260505173008 25 157 3.2 17.7 0.00 0.00 0.00 44 1008.4
20260505172506 25 216 3.2 17.7 0.00 0.00 0.00 44 1008.4
20260505172011 25 117 3.2 14.5 0.00 0.00 0.00 44 1008.5
20260505171526 25 327 1.6 14.5 0.00 0.00 0.00 45 1008.6
20260505171005 25 152 3.2 12.9 0.00 0.00 0.00 45 1008.5
20260505170509 25 195 3.2 17.7 0.00 0.00 0.00 46 1008.6
20260505170018 25 134 3.2 17.7 0.00 0.00 0.00 45 1008.6
20260505165509 25 165 3.2 20.9 0.00 0.00 0.00 46 1008.6
20260505165010 24 219 4.8 20.9 0.00 0.00 0.00 45 1008.9
20260505164533 25 93 4.8 16.1 0.00 0.00 0.00 46 1009.0
20260505164008 25 129 4.8 16.1 0.00 0.00 0.00 45 1009.0
20260505163504 25 151 3.2 14.5 0.00 0.00 0.00 46 1009.1
20260505163006 24 137 1.6 12.9 0.00 0.00 0.00 48 1009.1
20260505162503 24 217 3.2 12.9 0.00 0.00 0.00 46 1009.3
20260505162004 24 215 3.2 14.5 0.00 0.00 0.00 47 1009.3
20260505161514 24 169 3.2 22.5 0.00 0.00 0.00 46 1009.2
20260505161006 25 89 4.8 22.5 0.00 0.00 0.00 46 1009.3
20260505160508 25 171 1.6 9.7 0.00 0.00 0.00 45 1009.3
20260505153029 24 250 6.4 20.9 0.00 0.00 0.00 45 1009.7
20260505152506 24 146 3.2 20.9 0.00 0.00 0.00 44 1009.7
20260505152015 24 190 3.2 16.1 0.00 0.00 0.00 46 1009.7
20260505151510 24 153 3.2 16.1 0.00 0.00 0.00 46 1009.8
20260505151008 24 201 4.8 12.9 0.00 0.00 0.00 45 1009.9
20260505150513 23 153 1.6 19.3 0.00 0.00 0.00 48 1009.9
20260505140512 21 252 6.4 17.7 0.00 0.00 0.00 56 1010.3
20260505125004 17 165 1.6 9.7 0.00 0.00 0.00 69 1010.1
20260505124517 17 206 1.6 6.4 0.00 0.00 0.00 69 1010.0
20260505124011 17 145 3.2 8.0 0.00 0.00 0.00 68 1010.1
20260505123511 17 169 3.2 9.7 0.00 0.00 0.00 68 1010.3
20260505123029 16 180 0.0 9.7 0.00 0.00 0.00 70 1010.4
20260505122508 16 78 0.0 9.7 0.00 0.00 0.00 70 1010.5
20260505122009 16 200 3.2 8.0 0.00 0.00 0.00 70 1010.4
20260505121532 16 182 3.2 6.4 0.00 0.00 0.00 72 1010.4
20260505121007 15 202 1.6 6.4 0.00 0.00 0.00 72 1010.2
20260505120514 15 176 0.0 6.4 0.00 0.00 0.00 77 1010.2
20260505120037 15 186 1.6 6.4 0.00 0.00 0.00 77 1010.2
20260505115512 14 220 1.6 4.8 0.00 0.00 0.00 78 1010.1
20260505115008 14 198 1.6 4.8 0.00 0.00 0.00 78 1010.3
20260505114514 14 292 0.0 4.8 0.00 0.00 0.00 78 1010.2
20260505114010 14 5 1.6 4.8 0.00 0.00 0.00 76 1010.3
20260505113506 15 303 0.0 3.2 0.00 0.00 0.00 74 1010.3
20260505113018 15 157 0.0 4.8 0.00 0.00 0.00 72 1010.4
20260505112507 15 183 3.2 4.8 0.00 0.00 0.00 69 1010.5
20260505112007 15 218 0.0 3.2 0.00 0.00 0.00 69 1010.8
20260505111524 15 286 1.6 3.2 0.00 0.00 0.00 69 1010.7
20260505111007 15 187 0.0 4.8 0.00 0.00 0.00 70 1010.7
20260505110507 15 186 1.6 4.8 0.00 0.00 0.00 69 1010.6
20260505102006 13 223 0.0 3.2 0.00 0.00 0.00 75 1010.3
20260505101521 13 223 0.0 3.2 0.00 0.00 0.00 75 1010.1
20260505101009 12 189 1.6 3.2 0.00 0.00 0.00 75 1010.0
20260505100508 12 281 0.0 3.2 0.00 0.00 0.00 75 1010.0
20260505100030 13 281 1.6 3.2 0.00 0.00 0.00 75 1009.9
20260505095507 13 217 0.0 3.2 0.00 0.00 0.00 74 1009.8
20260505095010 13 211 0.0 3.2 0.00 0.00 0.00 74 1009.7
20260505094529 13 215 1.6 8.0 0.00 0.00 0.00 74 1009.6
20260505094010 13 215 1.6 8.0 0.00 0.00 0.00 74 1009.5
20260505093511 13 196 0.0 3.2 0.00 0.00 0.00 74 1009.6
20260505093027 13 202 0.0 3.2 0.00 0.00 0.00 73 1009.6
20260505092508 13 199 0.0 3.2 0.00 0.00 0.00 73 1009.5
20260505092009 13 199 0.0 3.2 0.00 0.00 0.00 72 1009.4
20260505091529 13 199 0.0 3.2 0.00 0.00 0.00 72 1009.4
20260505091013 13 196 0.0 3.2 0.00 0.00 0.00 72 1009.5
20260505090506 13 196 0.0 3.2 0.00 0.00 0.00 72 1009.5
20260505090041 13 196 0.0 3.2 0.00 0.00 0.00 72 1009.3
20260505085510 13 210 1.6 3.2 0.00 0.00 0.00 72 1009.4
20260505085011 13 215 0.0 3.2 0.00 0.00 0.00 71 1009.4
20260505084526 13 221 0.0 3.2 0.00 0.00 0.00 71 1009.4
20260505084012 13 216 1.6 3.2 0.00 0.00 0.00 70 1009.4
20260505083510 13 203 0.0 4.8 0.00 0.00 0.00 70 1009.4
20260505083028 13 203 0.0 4.8 0.00 0.00 0.00 70 1009.4
20260505082507 13 206 0.0 3.2 0.00 0.00 0.00 69 1009.4
20260505082008 13 215 0.0 3.2 0.00 0.00 0.00 69 1009.5